CAPE
0 0 0 0 0 0 0 4 4 1 0 3 2 3 5 0 0 0 0 0 0 0 0 0 0 0 0 0 0 0 0 0 0 0 0 0 0 0 0 1 0 0 0 0 0
0 0 0 0 0 0 0 0 5 7 2 0 0 4 7 0 0 0 0 0 0 0 0 0 0 0 0 0 0 0 0 0 0 0 0 0 0 0 0 0 0 0 0 0 0
0 0 0 0 0 0 1 0 0 8 3 2 0 0 15 0 0 0 14 19 1 18 0 0 0 4 0 0 0 0 0 0 0 0 0 0 0 0 0 0 0 0 0 0 0
0 0 0 0 0 2 2 0 0 3 3 2 1 0 0 0 0 0 21 25 50 45 16 6 19 57 38 0 0 0 0 0 0 0 0 0 0 0 0 0 0 0 0 0 0
0 0 0 0 0 0 0 0 0 1 2 6 8 0 0 0 0 0 0 73 40 46 13 12 16 49 49 1 0 0 0 0 0 0 0 0 0 0 0 0 0 0 0 0 0
2 0 0 0 0 0 0 0 0 0 2 3 9 2 1 0 0 0 0 0 21 31 30 45 66 55 76 23 9 0 0 0 1 0 0 0 0 0 1 2 0 0 0 0 0
21 20 0 0 0 0 0 0 0 0 0 0 10 5 19 0 0 0 0 1 37 70 9 13 51 93 73 27 15 1 4 1 0 0 0 0 0 0 0 1 6 0 0 0 0
46 35 14 0 0 0 0 0 0 0 0 0 11 10 0 0 0 0 0 0 0 72 81 21 52 79 82 4 16 22 25 14 0 0 0 0 0 0 6 1 0 1 0 0 0
10 28 3 0 0 0 0 0 0 0 0 2 0 0 0 0 0 0 0 0 7 49 75 60 76 96 42 9 1 39 24 5 6 0 0 0 0 0 41 31 2 0 1 0 0
21 8 0 0 0 0 0 0 0 0 0 0 0 0 0 0 0 0 0 40 33 11 16 123 127 99 24 24 0 3 17 6 4 0 0 0 0 0 83 73 42 1 0 0 0
21 21 0 0 0 0 0 0 0 0 0 0 0 0 0 0 0 0 0 41 75 115 7 60 150 45 27 12 0 0 3 3 17 0 4 0 0 0 0 62 69 26 0 0 0
29 12 0 0 0 0 0 0 1 0 0 0 0 0 0 0 0 0 60 24 48 7 42 6 13 6 6 21 2 6 4 1 10 0 10 2 0 0 0 7 11 81 37 0 0
24 6 0 0 0 0 0 0 0 0 0 0 0 0 0 0 0 3 25 51 36 33 15 46 1 1 5 6 3 6 5 0 6 1 0 17 2 0 0 0 0 48 89 38 0
9 0 0 0 0 0 0 0 0 0 0 0 0 0 0 0 0 0 78 22 50 1 0 27 23 3 13 2 6 0 1 0 18 38 3 10 0 19 0 0 0 2 46 11 0
0 0 0 0 0 0 0 0 0 0 0 0 0 0 0 0 0 0 101 52 11 6 70 0 60 39 7 4 4 0 0 2 7 19 12 1 5 1 0 0 0 29 8 0 0
0 0 0 0 0 0 0 0 0 0 0 0 0 0 0 0 0 2 0 107 0 4 1 0 26 71 18 1 0 0 0 0 8 19 1 6 4 0 0 0 0 1 1 1 0
0 0 0 0 0 0 0 0 0 0 0 0 0 0 0 0 0 4 0 1 21 16 0 0 47 8 15 25 5 0 0 0 0 0 0 3 2 0 0 0 0 0 0 0 1
0 0 0 0 0 0 0 0 0 0 0 0 0 0 0 0 0 0 0 1 0 11 0 1 15 24 32 8 3 4 0 0 0 0 0 0 0 0 0 0 0 0 0 0 0
0 0 0 0 0 0 0 0 0 0 0 0 0 0 0 0 0 0 0 1 25 5 11 0 0 31 9 24 1 7 4 1 1 0 0 0 4 0 1 1 0 0 0 0 0
0 0 0 0 0 0 0 0 0 0 12 1 0 0 0 0 0 0 0 0 51 42 3 7 0 0 24 14 7 8 0 2 1 0 0 0 0 0 0 2 2 1 0 0 0
0 0 0 0 0 0 0 0 0 2 4 4 0 0 0 0 2 2 0 0 6 25 1 7 25 0 1 0 4 2 6 3 0 0 0 0 1 0 0 0 0 0 0 0 0
0 0 0 0 0 0 0 0 0 0 14 17 8 2 0 0 0 4 0 0 1 29 12 9 5 6 2 0 0 0 1 16 0 1 0 0 0 0 0 0 0 0 0 0 0
0 0 0 0 0 0 0 0 0 0 1 5 13 14 8 0 0 1 3 0 0 19 7 2 0 0 1 0 0 0 0 0 0 0 0 0 0 0 0 0 0 0 0 0 1
0 0 0 0 0 0 0 0 0 0 0 1 0 0 10 0 0 0 0 0 0 11 20 43 2 1 0 0 0 0 1 0 1 0 0 0 0 0 0 0 0 0 0 0 0
0 0 0 0 0 0 0 0 1 0 0 0 0 0 3 0 0 0 0 0 0 2 0 13 1 1 7 3 0 0 0 0 0 0 0 0 0 0 0 0 0 0 0 1 2
0 0 1 0 0 0 0 0 0 0 0 0 0 0 1 0 0 0 0 2 12 0 1 4 1 0 0 0 0 0 0 0 0 0 0 0 0 0 0 0 0 0 0 0 0
0 0 0 0 0 0 0 0 0 0 0 0 0 0 0 1 0 0 0 0 4 8 4 9 0 0 0 0 0 0 0 0 0 0 0 0 0 0 0 0 0 0 0 0 0
CIN
0 0 0 0 0 0 0 0 0 0 0 0 0 0 0 0 0 0 0 0 0 0 0 0 0 0 0 0 0 0 0 0 0 0 0 0 0 0 0 -31 0 0 0 0 0
0 0 0 0 0 0 0 0 0 0 0 0 0 0 0 0 0 0 0 0 0 0 0 0 0 0 0 0 0 0 0 0 0 0 0 0 0 0 0 -94 0 0 0 0 0
0 0 0 0 0 0 0 0 0 0 0 0 0 0 0 0 0 0 -8 0 0 0 0 0 0 -30 0 0 0 0 0 0 0 0 0 0 0 0 0 0 0 0 0 0 0
0 0 0 0 0 0 0 0 0 0 0 0 0 0 0 0 0 0 -29 -17 -6 -2 -1 -1 0 0 -2 0 0 0 0 0 0 0 0 0 0 0 0 0 0 0 0 0 0
0 0 0 0 0 0 0 0 0 0 0 0 0 0 0 0 0 0 0 -14 -29 -7 0 -1 -1 -1 0 -32 -7 -2 0 0 0 0 0 0 0 0 0 0 0 0 0 0 0
-1 0 0 0 0 0 0 0 0 0 0 0 0 0 -1 0 0 0 0 0 -17 -12 -2 0 -1 -2 -4 -17 -29 0 0 0 -69 0 0 0 0 0 -85 -409 0 0 0 0 0
-1 -2 0 0 0 0 0 0 0 0 0 0 0 -1 0 0 0 0 0 -1 -10 -4 -4 -13 -3 0 -3 -2 -14 -12 -22 -33 0 0 0 0 0 0 0 -180 -317 0 0 0 0
0 -1 -3 0 0 0 0 0 0 0 0 0 0 -2 0 0 0 0 0 0 0 -30 -10 -17 -10 0 0 -10 -55 -2 -11 -4 -4 0 0 0 0 0 -260 -52 0 0 0 0 0
-2 -2 -2 0 0 0 0 0 0 0 0 -1 0 0 0 0 0 0 0 0 -14 -25 -22 -10 0 -1 -9 -7 0 -1 0 -1 -2 0 0 0 0 0 -195 -216 -128 0 0 0 0
-2 -3 0 0 0 0 0 0 0 0 0 0 -1 0 0 0 0 0 0 -48 -15 -11 -5 -5 0 0 -5 -11 0 0 0 -1 -2 0 0 0 0 0 -141 -149 -187 -191 0 0 0
-2 -2 0 0 0 0 0 0 0 0 0 0 0 0 0 0 0 0 0 -24 -14 -2 0 -9 0 0 0 -1 -1 0 0 0 -2 0 -9 0 0 0 0 -127 -137 -187 0 0 0
-2 -1 0 0 0 0 0 0 -2 0 0 0 0 0 0 0 0 0 -63 -15 -17 -13 -20 -3 -12 0 0 0 0 0 0 0 -1 -3 -31 -5 0 0 0 -130 -181 -153 -169 0 0
-1 -1 0 0 0 0 0 0 0 0 0 0 0 0 0 0 0 -79 -35 -29 -5 -5 -13 -7 -1 -3 -5 0 0 0 0 0 0 -7 -8 -5 -1 0 0 0 0 -122 -136 -124 0
-1 0 0 0 0 0 0 0 0 0 0 0 0 0 0 0 0 0 -44 -21 -2 -5 0 -4 -4 0 -7 0 0 0 0 0 0 0 0 -2 0 -1 -4 0 0 -36 -74 -47 0
0 0 0 0 0 0 0 0 0 0 0 0 0 0 0 0 0 0 -40 -26 0 -14 -8 0 -1 -5 0 0 0 0 0 0 0 0 0 0 -2 -1 -2 0 0 -64 -47 0 0
0 0 0 0 0 0 0 0 0 0 0 0 0 0 0 0 0 -4 -1 -31 -1 -4 -3 0 -35 -19 -29 -1 0 0 0 0 0 0 -1 0 -2 0 0 0 0 0 0 0 0
0 0 0 0 0 0 0 0 0 0 0 0 0 0 0 0 0 -8 -1 -9 0 0 0 0 -14 -16 -5 0 0 0 0 0 0 0 0 0 0 0 0 0 0 0 0 0 0
0 0 0 0 0 0 0 0 0 0 0 0 0 0 0 0 0 0 0 0 0 -3 0 -2 -17 -1 -4 -2 0 0 0 0 0 0 0 0 0 0 0 0 0 0 0 0 0
0 0 0 0 0 0 0 0 0 0 0 0 0 -1 0 0 0 0 0 0 -1 -20 -5 0 0 -15 -3 -6 -1 0 0 0 0 0 0 0 0 0 0 0 0 0 0 0 0
0 0 0 0 0 0 0 0 0 -2 0 0 0 0 0 0 0 0 0 0 -5 -1 -11 -8 0 0 -7 -9 -1 0 -3 0 0 0 0 0 0 0 0 0 0 0 0 0 0
0 0 0 0 0 0 0 0 0 -5 -7 0 -1 0 0 0 -2 -4 0 0 0 -1 0 -6 0 0 0 0 0 0 0 0 -1 0 0 0 0 0 0 0 0 0 0 0 0
0 0 0 0 0 0 0 0 0 0 -1 0 0 0 0 0 -11 0 0 0 -20 0 0 -1 -1 0 0 0 0 0 -18 -5 -2 -2 0 0 0 0 0 0 0 0 0 0 0
0 0 0 0 0 0 0 0 0 0 -5 -2 0 0 0 0 0 -9 -3 0 0 -4 0 0 0 0 0 0 0 0 0 0 0 0 0 -1 0 0 0 0 0 0 0 0 0
0 0 0 0 0 0 0 0 0 -2 0 -1 0 0 0 0 0 0 0 0 0 -1 0 0 0 0 0 0 0 0 0 -13 -40 0 0 0 0 0 0 0 0 0 0 0 0
0 0 0 0 0 0 0 0 0 0 0 0 0 0 0 0 0 0 -3 0 0 -7 0 -4 -2 0 0 0 0 0 0 0 0 0 0 0 0 0 0 0 0 0 0 0 0
0 0 0 0 0 0 0 0 0 0 0 0 0 0 0 0 0 0 0 0 -4 0 0 0 -1 0 0 0 0 0 0 0 0 0 0 0 0 0 0 0 0 0 0 0 0
0 0 0 0 0 0 0 0 0 0 0 0 0 0 0 -11 0 0 0 0 0 0 0 0 0 0 0 0 0 0 0 0 0 0 0 0 0 0 0 0 0 0 0 0 0
Wind_Speed
4 5 6 7 8 8 9 11 12 13 12 13 15 16 17 17 15 4 7 7 4 8 10 7 5 3 2 2 3 3 1 4 5 7 5 3 4 1 2 8 1 2 5 5 17
3 4 6 6 7 9 10 11 11 12 13 14 14 14 17 19 4 7 8 16 11 5 6 5 3 6 1 4 3 4 3 7 5 4 5 6 6 9 5 6 3 1 3 18 17
2 4 6 6 6 8 10 11 12 12 12 14 14 16 16 12 6 5 7 7 9 2 3 3 2 3 4 4 5 4 5 5 4 3 4 6 5 6 8 5 8 11 16 17 19
3 3 7 6 6 8 10 11 9 10 12 14 15 15 16 2 6 3 2 5 7 3 2 3 4 4 4 6 5 6 7 9 7 3 2 6 5 6 8 5 7 12 25 19 20
4 4 5 6 7 9 9 9 9 11 12 12 13 15 6 3 9 8 10 8 6 2 8 9 10 5 9 5 6 11 8 6 8 7 4 2 6 7 7 3 9 13 17 17 17
5 5 6 6 7 9 9 10 11 12 12 12 12 11 2 6 5 6 5 6 4 3 6 9 7 7 8 8 16 7 17 15 6 8 4 5 5 7 2 7 10 16 17 14 16
7 7 7 7 7 9 10 11 12 13 13 11 10 3 4 15 5 8 5 6 3 3 6 10 13 11 4 9 13 6 7 15 19 6 6 5 5 6 7 10 13 14 15 12 11
7 7 6 7 8 9 11 13 14 15 12 11 9 1 8 7 5 8 3 6 6 6 6 9 8 14 7 5 4 19 5 11 18 17 9 6 7 6 13 16 15 13 12 13 12
7 7 6 6 7 9 12 15 16 15 12 10 1 2 10 9 3 6 4 6 4 4 6 8 8 11 6 9 12 13 14 25 16 18 7 9 5 6 12 13 13 14 14 13 11
7 6 6 4 5 9 14 17 12 6 4 2 1 3 5 4 6 9 5 4 4 6 7 5 7 5 12 11 15 7 21 13 21 25 17 9 6 4 15 15 15 13 11 13 14
7 6 6 3 3 7 7 5 7 6 5 3 6 6 8 6 5 5 6 3 2 3 6 7 9 12 12 17 16 6 4 14 18 15 14 16 14 9 10 11 10 11 11 12 12
7 7 6 2 2 5 3 4 2 3 10 6 10 8 10 5 7 9 3 1 4 8 6 8 14 11 8 12 19 22 6 12 17 14 17 15 14 15 7 11 11 16 13 13 9
8 8 6 3 2 4 3 3 4 2 3 8 5 4 7 2 5 11 4 2 4 5 10 12 8 15 9 4 7 6 9 11 13 9 9 15 14 5 4 2 6 9 13 12 14
11 8 6 4 4 1 3 6 4 2 6 7 5 4 5 4 6 7 3 5 4 8 8 8 9 16 10 7 5 6 3 5 15 18 14 18 10 18 13 8 4 7 13 13 12
10 8 7 4 4 3 3 5 2 5 6 6 7 5 8 3 7 5 2 5 7 9 4 6 4 15 14 6 9 4 2 8 17 16 9 17 11 8 24 18 7 8 11 12 12
10 7 7 4 3 1 4 2 5 9 7 8 5 7 7 4 4 6 4 2 5 5 6 10 4 7 3 8 9 2 6 18 9 10 13 9 14 12 22 30 12 8 9 11 12
9 7 4 2 1 5 2 5 8 6 4 9 5 7 8 5 7 3 3 4 1 3 3 4 4 4 5 4 8 3 6 5 3 4 3 19 12 3 12 23 22 17 14 12 11
9 6 5 3 3 1 4 8 5 3 6 4 5 10 4 6 4 6 6 5 3 4 4 3 5 2 4 2 5 4 5 1 4 2 3 10 8 4 3 6 5 15 14 14 11
7 3 3 4 4 3 7 6 8 7 4 6 7 5 7 4 2 7 2 3 3 3 3 2 4 2 4 2 2 4 3 6 2 3 2 5 2 1 5 8 12 14 15 13 13
3 2 2 6 3 5 6 4 3 4 2 3 1 1 5 6 8 5 3 3 4 6 5 4 5 1 2 1 4 3 6 3 1 5 3 1 2 3 6 7 10 12 12 12 10
4 4 3 6 3 6 4 6 4 2 2 2 1 3 5 4 4 5 5 6 6 5 8 1 3 5 2 1 2 2 3 4 3 1 3 2 3 4 5 11 11 9 10 11 11
4 2 4 3 5 1 2 0 3 6 2 3 3 4 5 3 4 3 5 4 7 8 4 3 2 4 1 1 1 1 3 1 3 3 2 1 3 5 4 10 11 11 10 9 10
4 1 3 2 3 2 4 2 4 4 3 2 3 3 1 3 3 5 4 5 7 7 3 3 3 3 0 2 2 1 2 3 2 2 2 2 3 5 5 9 9 13 10 9 10
4 1 5 4 3 5 2 4 3 4 7 4 3 3 3 3 5 5 5 5 8 5 13 3 3 1 0 2 1 4 3 1 4 3 3 2 1 3 1 9 10 10 10 10 11
3 4 3 2 2 3 1 2 3 3 3 3 3 6 4 3 4 4 4 5 4 9 7 6 2 3 3 3 3 1 4 3 3 1 2 2 2 3 5 5 7 11 12 12 11
6 5 0 2 4 4 2 3 5 5 4 4 4 3 5 4 3 4 3 4 4 10 6 7 3 4 5 6 6 3 2 4 2 1 2 0 1 3 5 8 5 8 11 12 12
1 1 4 3 2 4 5 5 5 3 3 2 3 4 4 4 3 4 5 6 6 6 5 5 3 4 4 6 7 5 4 5 2 2 4 3 1 5 3 5 9 11 13 14 14
Wind_Direction
346 346 351 358 0 359 354 349 349 349 347 348 345 342 341 337 326 317 252 240 293 337 323 297 294 290 94 232 241 120 8 224 231 159 218 193 157 254 56 111 103 261 168 180 140
330 338 337 332 349 351 348 343 341 343 343 342 344 343 339 333 291 260 249 276 285 332 326 319 324 324 151 195 236 161 201 225 221 212 190 192 170 160 133 137 217 235 62 127 141
245 288 328 315 323 332 332 336 329 333 339 340 341 342 337 328 318 251 313 336 268 305 288 299 271 269 201 191 188 203 212 264 268 216 222 193 178 190 134 220 200 184 154 148 151
281 294 320 315 312 321 326 329 322 321 330 335 337 342 330 311 291 222 289 332 298 272 254 248 229 218 228 206 192 222 237 249 288 228 225 185 160 188 171 203 186 168 160 152 162
291 282 310 315 313 319 324 329 323 318 323 327 335 338 359 338 266 298 316 320 314 264 247 240 236 213 217 173 221 228 213 272 250 257 231 199 197 193 185 32 123 140 161 161 165
250 258 278 295 305 316 313 318 318 315 311 318 329 339 327 284 253 311 329 326 289 288 272 236 257 242 267 223 223 177 231 236 278 270 263 194 223 153 157 126 133 154 172 171 168
243 250 260 280 301 311 305 306 307 313 311 312 317 328 255 251 277 324 324 290 301 285 279 266 257 258 189 219 230 225 211 223 244 259 272 169 248 209 138 141 151 168 175 176 172
247 248 260 277 296 307 306 303 300 306 304 300 304 57 258 263 284 299 241 269 243 247 242 269 268 247 244 307 289 212 200 210 209 226 250 189 225 223 155 152 175 175 182 183 189
234 227 236 260 293 313 307 302 298 296 292 295 5 152 271 306 304 295 226 259 281 276 272 272 272 238 256 219 257 207 209 217 212 211 223 203 212 182 168 159 177 184 189 191 186
236 223 209 246 300 311 312 305 300 305 322 122 142 359 273 293 302 301 263 251 275 315 303 205 235 254 208 214 213 323 215 213 214 209 222 220 232 178 178 171 183 188 184 192 190
215 209 202 212 297 328 353 4 12 354 23 255 262 247 290 277 281 277 295 271 205 279 258 265 246 226 267 222 216 217 270 323 206 203 196 226 209 221 184 193 176 183 187 187 185
191 176 175 170 348 352 56 63 55 263 308 250 255 256 263 247 293 289 145 161 181 228 242 270 253 230 348 274 225 214 268 293 275 189 176 213 217 222 155 204 190 184 191 173 141
162 153 148 132 80 46 71 51 316 358 287 298 246 263 278 203 270 282 167 108 267 266 231 252 293 312 193 341 146 218 228 262 258 226 187 181 230 229 222 252 184 195 186 180 160
142 136 134 144 62 331 64 329 340 91 57 287 339 302 325 316 280 261 226 170 255 238 213 236 240 250 192 167 243 155 74 322 266 227 200 183 216 223 205 189 218 171 165 157 142
129 134 125 87 152 62 312 329 6 57 25 286 302 299 313 243 305 298 287 138 217 283 342 241 217 219 184 189 197 175 80 313 270 240 190 193 219 182 217 216 193 161 154 151 145
128 135 124 57 58 52 324 40 51 44 267 323 317 341 351 303 271 294 353 88 343 292 251 244 291 257 236 144 166 61 19 293 209 242 216 185 194 196 191 212 189 154 146 140 138
123 122 76 87 110 321 17 47 38 119 318 309 328 344 331 284 306 276 323 323 203 307 308 312 202 255 165 149 109 109 76 288 194 215 243 169 200 161 190 202 192 166 154 136 133
118 88 48 71 323 20 55 52 85 232 247 321 323 311 287 341 296 325 327 331 301 229 295 170 303 243 179 227 164 117 127 260 312 278 127 165 198 186 62 323 153 154 137 126 131
110 12 38 342 346 67 71 63 205 205 240 314 330 339 313 328 354 349 308 295 284 304 285 345 285 126 316 207 176 127 156 150 309 221 238 148 175 215 88 64 103 130 136 138 135
89 62 348 324 351 66 75 233 237 215 265 259 286 300 313 299 343 11 311 268 285 358 344 326 313 359 221 81 188 164 159 127 105 323 355 33 141 86 173 146 128 138 137 135 130
62 55 275 331 55 50 142 221 256 184 114 277 296 275 278 291 306 298 265 294 343 324 330 272 295 295 3 42 117 314 149 99 114 260 308 15 37 325 169 154 147 145 144 142 146
95 40 315 5 58 91 106 45 326 258 163 264 271 239 231 262 277 279 294 283 334 301 305 264 254 289 196 287 331 20 35 197 155 230 323 80 343 322 83 143 142 144 146 140 134
101 221 323 67 128 285 307 270 258 278 215 259 273 228 271 271 302 247 295 269 321 321 29 300 228 268 328 296 341 324 96 269 103 72 216 94 306 2 61 127 140 134 139 140 138
93 48 336 38 180 127 162 269 269 230 253 259 279 290 262 264 230 283 290 294 326 304 323 269 300 296 176 38 106 205 149 238 94 113 171 227 311 124 120 136 138 139 141 144 155
53 237 188 229 265 145 190 260 277 272 278 192 289 229 276 283 299 259 299 299 302 342 333 345 268 337 18 346 286 249 131 159 158 188 131 334 17 65 185 179 157 146 144 150 159
135 145 212 129 127 166 182 232 214 270 209 246 214 302 284 254 231 291 357 348 350 325 340 343 324 341 354 345 13 11 89 189 217 96 294 269 341 34 69 100 126 156 158 164 174
159 61 109 164 154 151 216 212 222 172 236 242 253 294 272 283 249 260 270 286 280 311 315 326 359 24 308 350 337 7 240 194 182 199 168 211 165 150 98 148 178 179 185 185 186